www.pogodaiklimat.ru

Погода и климат >> Архив погоды >> Канада >> Waterloo Wellington


ПОГОДА в Waterloo Wellington

  • Прогноз погоды в Waterloo Wellington
  • Монитор погоды в Waterloo Wellington
  • Климат города

АРХИВ ПОГОДЫ в Waterloo Wellington

Время (UTC), дата Ветер
(напр.,м/с)
 
Видим.   Явления Облачность Т
(С)
Тd
(С)
f
(%)
Тe
(С)
Тes
(С)
Комфортность P
(гПа)
Po
(гПа)
Тmin
(С)
Tmax
(С)
R
(мм)
R24
(мм)
S
(см)
12 12.12 Ю 1 9000 м дымка 10/10 600 м
[]
-2.2 -3.2 93 -5 -5 1019.5 979.9 -2.3 -1.5
15 12.12 Ю 2 16 км 10/10 600 м
[]
+0.1 -3.7 76 -3 -3 1019.6 980.1
18 12.12 В 6 16 км 10/10 600 м
[]
+0.5 -4.2 71 -6 -6 1017.2 977.8 -2.6 +0.9
21 12.12 ЮВ 7 16 км 10/10 600 м
[]
0.0 -3.0 80 -7 -7 1016.9 977.5
00 13.12 В 7 11 км 5/5 300 м
[]
-0.8 -3.0 85 -8 -8 1016.6 977.2 -2.3 +0.9
03 13.12 В 6 2800 м слаб. снег 10/10 300 м
[]
-0.9 -2.0 92 -8 -8 1017.3 977.9
06 13.12 В 6 6000 м слаб. снег {осадки} 10/10 200 м
[]
-1.0 -2.0 93 -8 -8 1017.3 978.0 -2.3 +0.9 0.3 0
09 13.12 В 4 2400 м слаб. снег 10/10 100 м
[]
-1.1 -1.4 98 -7 -7 1018.3 978.9
12 13.12 В 3 2000 м дымка 10/10 50 м
[]
-0.7 -1.0 98 -6 -6 1020.1 980.6 -1.1 +0.9
15 13.12 В 4 1000 м дымка 10/10 50 м
[]
+0.2 +0.1 99 -5 -5 1022.4 982.9
18 13.12 В 4 2000 м дымка 10/10 50 м
[]
+1.2 +0.8 97 -4 -4 1022.6 983.1 -1.1 +1.3
21 13.12 В 4 2000 м дымка 10/10 100 м
[]
+0.7 +0.1 96 -5 -5 1023.9 984.3
00 14.12 ЮВ 3 1600 м дымка 10/10 50 м
[]
+0.8 +0.5 98 -4 -4 1025.4 985.8 -1.1 +1.4
03 14.12 ЮВ 3 300 м туман н/о +0.4 +0.3 99 -4 -4 1025.2 985.6
06 14.12 В 1 300 м переохл. туман н/о -0.5 -0.6 99 -3 -3 1024.2 984.6 -1.1 +1.4
09 14.12 СВ 1 1200 м дымка 10/10 50 м
[]
-1.0 -1.1 99 -3 -3 1023.8 984.2
12 14.12 В 2 2000 м слаб. дождь 10/10 1500 м
[]
+0.2 +0.1 99 -3 -3 1023.5 984.0 -1.9 +1.4 0.5
15 14.12 ЮЗ 1 2000 м слаб. дождь {осадки} 10/10 200 м
[]
+1.8 +1.7 99 -0 -0 1024.4 984.9
18 14.12 Ю 4 4000 м дымка {осадки} 9/9 1000 м
[]
+3.8 +3.1 95 -1 -0 1021.3 982.0 -1.9 +3.8 4
21 14.12 ЮЗ 3 8000 м дымка 10/10 1000 м
[]
+4.8 +3.1 89 +2 +2 1021.4 982.1
00 15.12 ЮЗ 2 4800 м дымка 10/10 300 м
[]
+4.0 +2.8 92 +2 +2 1022.0 982.7 -1.9 +5.3
03 15.12 З 3 700 м туман н/о +2.6 +2.5 99 -2 -2 1022.2 982.9
06 15.12 СЗ 2 300 м туман н/о +0.6 +0.5 99 -3 -3 1021.6 982.3 -1.9 +5.3
09 15.12 СЗ 4 6000 м дымка 9/9 50 м
[]
-0.7 -0.8 99 -6 -6 1023.3 983.9
12 15.12 С 2 11 км 9/0
[]
-1.1 -1.5 97 -5 -5 1024.3 984.8 -1.5 +5.3
15 15.12 СВ 3 16 км 10/0
[]
+0.2 -1.0 92 -5 -4 1024.4 984.9
18 15.12 В 5 12 км 9/9 200 м
[]
+2.1 +0.7 90 -3 -3 1022.6 983.2 -1.7 +2.1
21 15.12 В 3 9000 м дымка 9/0
[]
+0.9 -0.1 93 -3 -3 1023.3 983.8
00 16.12 СВ 3 11 км 10/0
[]
+0.4 -0.8 92 -4 -4 1024.0 984.4 -1.7 +2.3
03 16.12 СВ 4 9000 м дымка 9/0
[]
-0.2 -1.2 93 -6 -6 1023.5 983.9
06 16.12 СВ 5 16 км 9/0
[]
-0.9 -2.0 92 -7 -7 1020.8 981.4 -2.2 +2.3
09 16.12 В 5 11 км 10/10 100 м
[]
+0.3 -0.4 95 -6 -6 1019.2 979.9
12 16.12 В 5 9000 м дымка 10/10 100 м
[]
+0.3 -0.4 95 -6 -6 1019.4 980.0 -2.2 +2.3
15 16.12 СВ 3 4800 м дымка 10/10 100 м
[]
-0.5 -0.9 97 -6 -6 1018.9 979.5
18 16.12 В 4 16 км 10/10 200 м
[]
+1.4 -0.2 89 -4 -4 1016.1 976.8 -2.2 +1.6
21 16.12 СВ 2 16 км ясно +2.0 +0.1 87 -1 -0 1015.3 976.1
00 17.12 Ю 2 4800 м дымка 5/5 300 м
[]
-1.8 -2.2 97 -6 -6 1014.9 975.6 -2.3 +2.5
03 17.12 ЮЗ 3 2400 м дымка 10/10 100 м
[]
-0.7 -1.0 98 -5 -5 1013.4 974.2
06 17.12 З 4 3600 м дымка 9/9 100 м
[]
-0.6 -1.3 95 -6 -6 1011.4 972.3 -2.6 +2.5 8
09 17.12 З 5 9000 м дымка 10/10 300 м
[]
+0.9 -0.4 91 -5 -5 1009.8 970.9
12 17.12 З 5 16 км ясно +0.3 -1.3 89 -6 -6 1010.4 971.3 -2.6 +2.5
15 17.12 СЗ 5 16 км слаб. дождь 10/10 600 м
[]
+0.9 -2.3 79 -5 -5 1012.5 973.4
18 17.12 СЗ 7 16 км 10/10 600 м
[]
+0.4 -3.3 76 -6 -6 1012.7 973.5 -2.6 +1.2
21 17.12 СЗ 9 16 км 10/10 600 м
[]
0.0 -4.6 71 -8 -8 1014.9 975.7
00 18.12 СЗ 8 16 км 10/10 600 м
[]
-0.4 -5.1 71 -8 -8 1017.5 978.2 -0.6 +1.0
03 18.12 СЗ 4 16 км 10/10 600 м
[]
-0.9 -4.8 75 -6 -6 1018.5 979.1
06 18.12 С 4 16 км 10/10 600 м
[]
-1.8 -5.3 77 -8 -8 1019.5 980.0 -1.9 +1.2 231
09 18.12 СЗ 6 16 км 9/9 600 м
[]
-3.3 -8.0 70 -10 -10 1021.2 981.6
12 18.12 СЗ 4 16 км 3/3 600 м
[]
-5.4 -9.6 72 -12 -12 1023.5 983.7 -5.4 +1.2
15 18.12 С 3 16 км 3/3 600 м
[]
-3.8 -8.5 70 -9 -8 1024.5 984.7
18 18.12 З 4 16 км ясно -1.3 -9.2 55 -6 -4 1023.3 983.6 -5.8 -1.1
21 18.12 З 3 16 км ясно -1.2 -8.4 58 -6 -5 1022.6 982.9
00 19.12 Ю 2 16 км 10/0
[]
-5.2 -7.5 84 -9 -9 1021.8 981.8 -5.8 -0.4
03 19.12 Ю 1 16 км ясно -5.6 -7.2 88 -8 -8 1021.3 981.3
06 19.12 Ю 2 16 км 9/0
[]
-4.0 -5.7 88 -8 -8 1018.6 979.0 -6.3 -0.4 11
09 19.12 Ю 2 11 км ясно -4.9 -5.9 93 -9 -9 1018.1 978.5

 

Местоположение метеостанции Waterloo Wellington (Канада): широта 43.45 долгота -80.38 высота над уровнем моря 317 м.

В архиве по умолчанию представлена погода в Waterloo Wellington за последнюю неделю. Архивные данные за месяц целиком и за предыдущие месяцы, начиная с января 2011 года, Вы можете получить, выбрав интересующий диапазон дат из раскрывающегося списка и нажав кнопку "Ввод!".


*Определитесь, кто Вы:
робот инопланетянин человек

Внимание! Время в таблицах - всемирное. Для получения местного времени необходимо прибавить поправку, которая в Waterloo Wellington равна -5 ч.

Смотрите также архив погоды в соседних городах и на ближайших метеорологических станциях:

Погода в Guelph Turfgrass (Канада) (17 км)
Погода в Elora Rcs (Канада) (22 км)
Погода в Brantford Airport (Канада) (36 км)
Погода в Hamilton Rbg Cs (Канада) (43 км)
Погода в Hamilton Airport (Канада) (48 км)
Погода в Burlington Piers (Канада) (50 км)
Погода в Toronto (Канада) (65 км)
Погода в Delhi (Канада) (66 км)
Погода в Mount Forest (Канада) (66 км)
Погода в Simcoe (Канада) (67 км)

Пояснения к столбцам:

Ветер - указаны скорость ветра в м/с - средняя за 10 мин, порывы в срок и между сроками (в фигурных скобках) и направление, откуда дует ветер: С - северный, СВ - северо-восточный, В - восточный, ЮВ - юго-восточный, Ю - южный, ЮЗ - юго-западный, З - западный, СЗ - северо-западный.
Видимость - горизонтальная дальность видимости в метрах или километрах. При видимости от 1 до 10 км при отсутствии осадков обычно наблюдается дымка, при ухудшении видимости до 1 км и менее - туман. В сухую погоду видимость может ухудшаться дымом, пылью или мглою.
Явления - указаны атмосферные явления, наблюдавшиеся в срок или в последний час перед сроком; фигурными скобками обозначены явления, наблюдавшиеся между сроками (за 1-3 часа до срока); квадратными скобками обозначены град или гололедные отложения с указанием их диаметра в мм.
Облачность - указаны через наклонную черту общая и нижняя облачность в баллах и высота нижней границы облаков в метрах; квадратными скобками обозначены формы облаков: Ci - перистые, Cs - перисто-слоистые, Cc - перисто-кучевые, Ac - высококучевые, As - высокослоистые, Sc - слоисто-кучевые, Ns - слоисто-дождевые, Cu - кучевые, Cb - кучево-дождевые. Подробнее классификацию облаков см. в Атласе облаков (PDF).
T - Температура воздуха - температура, измеренная на высоте 2 м над землей.
Td - Температура точки росы - температура, при понижении до которой содержащийся в воздухе водяной пар достигнет насыщения.
f - Относительная влажность воздуха - влажноcть воздуха, измеренная на высоте 2 м над землей.
Te - Эффективная температура - температура, которую ощущает одетый по сезону человек в тени. Характеристика душности погоды. При расчете учитывается влияние влажности воздуха и скорости ветра на теплоощущения человека.
Tes - Эффективная температура на солнце - температура, которую ощущает человек, с поправкой на солнечный нагрев. Характеристика знойности погоды. Зависит от высоты солнца над горизонтом, облачности и скорости ветра. Ночью, в пасмурную погоду, а также при ветре 12 м/с и более поправка равна нулю.
P - Атмосферное давление - приведенное к уровню моря атмосферное давление.
Po - Атмосферное давление - измеренное на уровне метеостанции атмосферное давление.
Tmin - Минимальная температура - минимум температуры воздуха на высоте 2 м над землей.
Tmax - Максимальная температура - максимум температуры воздуха на высоте 2 м над землей.
R - Количество осадков - Количество выпавших осадков за период времени, мм. При наведении курсора мыши на число - период времени, за который выпало указанное количество осадков.
R24 - Количество осадков - Количество выпавших осадков за 24 часа, мм.
S - Снежный покров - Высота снежного покрова, см. При наведении курсора мыши на число - состояние снежного покрова и степень покрытия местности в баллах.